sat.trackr.live / text

‹ back to catalog

STARLINK-1017

NORAD 44723 · 2019-074L

PAYLOAD ACTIVE UNKNOWN

§ Identity

Operator
Country
US
Launch date
2019-11-11
Launch site
AFETR
Launch vehicle
Mass (kg)
RCS (m²)

Purposes: comms

External: N2YO · Heavens-Above · Gunter

§ Orbital elements

Epoch: 2026-09-12T18:04:38.138016Z

Period
93.58 min
Inclination
53.0453°
Eccentricity
0.0002878
Mean motion
15.38842701 rev/d
Perigee alt
447.6 km
Apogee alt
451.5 km
Semi-major
6,827.7 km
B*
1.0685e-3
RAAN
18.3760°
Arg perigee
328.9988°
Mean anomaly
31.0845°
Rev number
37,763

§ Raw data

STARLINK-10171 44723U 19074L   26255.75321919  .00041503  00000+0  10685-2 0  99922 44723  53.0453  18.3760 0002878 328.9988  31.0845 15.38842701377635

JSON: /api/v1/satellites/44723 · /tle

For live sub-satellite position, see the globe view (requires WebGL).

§ Visibility from observer

Set your observer location to see the next 7 days of passes ≥ 10°. The values pass through the URL so the page stays shareable.

No JS? Fill the form by hand. The geolocation button needs JavaScript.